Showing default

NUSAT-48 (H. LEAVITT), 60498

Orbit data source: Space-Track

NUSAT-48 (H. LEAVITT), 60498 is a payload satellite owned by URUGUS S.A. (AR) in SSO that was launched on Fri, 16 Aug 2024 UTC via an FALCON 9 launch vehicle from the Air Force Western Test Range (AFWTR). Payload-class satellites include a variety of spacecraft equipped with specific instruments for various scientific and technological missions. These include communications satellites like Starlink; space stations such as the ISS; scientific satellites like the Hubble; Earth observation satellites from companies like Planet Labs, Umbra, and HawkEye 360; GPS; miniature CubeSats for education and research; and military/defense satellites.

Loading next visibility...
Identifier
60498, 2024-149AG
Orbit
SSO
Country
Flag of ARAR / ARGN
Related business
Manufacturer
URUGUS S.A.
Mission
Operational Commercial Imaging
Bus & Motor
NEWSAT V, Unknown motor
Mass
41.5 kg wet, 38.5 kg dry
Launch date (UTC)
2024-08-16 (2 years ago)
Launch vehicle
FALCON 9
Launch site
Air Force Western Test Range (AFWTR)
Object type
Payload
Rocket body
Debris
Shape & HBR
Box, 1.0 m
Radar Cross Section
0.542 m², Medium (>0.1 m² and < 1m²)

Expand to show TLE details & history
Last TLE update: 18 hours ago

TLE from 18 hours ago
0 NUSAT-48 (H. LEAVITT)
1 60498U 24149AG  26236.69500232  .00007861  00000-0  27125-3 0  9995
2 60498  97.3892 317.8415 0004150  48.5741 311.5856 15.30237731112617
Epoch: 2026-08-24T16:40Z
TLE epoch observation values (Epoch: 2026-08-24T16:40:48.200Z)
Latitude
Longitude
94.66765°
Altitude
476.32 km
Speed
7.629 km/s
True Right ascension
21h 11m 21s
True Declination
0° 00' 00"
Sunlit
Object was in full shadow at epoch
Visualization orbit readout
Latitude
Unknown
Longitude
Unknown
Altitude
Unknown
Speed
Unknown
Apparent Right ascension
Unknown
Apparent Declination
Unknown
Sunlit
N/A
Visualization observer readout
Local Sidereal Time
02:04:28
Azimuth
Unknown
Elevation
Unknown
Doppler factor
Unknown
Orbital elements
Apogee altitude
474.897 km
Perigee altitude
469.211 km
Semi-major axis
6,850.191 km
Eccentricity
0.00042
Inclination
97.3892°
RAAN
317.8415°
Arg. of periapsis
48.5741°
True anomaly
311.55002°
Mean anomaly
311.5856°
Eccentric anomaly
311.56781°
Mean motion
3.82815 °/min
Orbital period
94.04 mins
BSTAR
0.00027125
Loading maneuver chart data...
Computing Atmospheric mass density...
Loading historical data...
Loading historical data...
Loading historical data...
Loading historical data...
Loading historical data...
Loading historical data...
Loading historical data...

Documentation

Showing up to 5 results
|